EW7349 Weather Reports


Display with metric or nautical units.
time (UTC)temp
F
wind
direction
speed
MPH
gust
MPH
rain 1hr
in
rain 24hr
in
rain mn
in
humidity
%
barometer
mb
20260506025534 71 141 1.0 8.0 0.00 0.00 0.00 52 1010.7
20260506025034 71 126 1.0 8.0 0.00 0.00 0.00 51 1010.7
20260506024800 71 213 1.0 8.0 0.00 0.00 0.00 51 1010.8
20260506024035 71 130 1.0 3.0 0.00 0.00 0.00 50 1010.8
20260506023534 71 59 1.0 3.0 0.00 0.00 0.00 50 1010.8
20260506023254 71 74 0.0 3.0 0.00 0.00 0.00 49 1010.8
20260506022533 71 120 1.0 3.0 0.00 0.00 0.00 49 1010.8
20260506022251 71 98 1.0 4.0 0.00 0.00 0.00 49 1010.9
20260506021532 72 15 1.0 4.0 0.00 0.00 0.00 49 1010.9
20260506021030 72 216 1.0 4.0 0.00 0.00 0.00 48 1011.0
20260506020530 72 308 1.0 7.0 0.00 0.00 0.00 48 1011.0
20260506020030 72 148 1.0 7.0 0.00 0.00 0.00 47 1011.0
20260506015531 72 236 1.0 6.0 0.00 0.00 0.00 46 1010.9
20260506015030 72 286 1.0 6.0 0.00 0.00 0.00 46 1010.9
20260506014524 73 111 1.0 4.0 0.00 0.00 0.00 45 1010.8
20260506014017 73 128 1.0 5.0 0.00 0.00 0.00 44 1010.7
20260506013739 73 229 1.0 5.0 0.00 0.00 0.00 43 1010.7
20260506013005 73 111 1.0 3.0 0.00 0.00 0.00 43 1010.7
20260506012739 74 90 1.0 3.0 0.00 0.00 0.00 42 1010.5
20260506012004 74 128 1.0 2.0 0.00 0.00 0.00 42 1010.5
20260506011504 74 195 1.0 6.0 0.00 0.00 0.00 42 1010.5
20260506011004 74 250 1.0 6.0 0.00 0.00 0.00 41 1010.5
20260506010945 74 265 1.0 4.0 0.00 0.00 0.00 41 1010.3
20260506010004 74 271 2.0 7.0 0.00 0.00 0.00 41 1010.3
20260506005503 75 154 2.0 9.0 0.00 0.00 0.00 40 1010.3
20260506005003 75 208 1.0 9.0 0.00 0.00 0.00 40 1010.2
20260506004502 75 254 1.0 5.0 0.00 0.00 0.00 40 1010.1
20260506004223 75 156 1.0 5.0 0.00 0.00 0.00 39 1010.0
20260506003502 75 207 1.0 4.0 0.00 0.00 0.00 39 1010.0
20260506003004 76 248 1.0 5.0 0.00 0.00 0.00 38 1010.0
20260506002458 76 221 1.0 5.0 0.00 0.00 0.00 38 1009.9
20260506002437 76 127 1.0 8.0 0.00 0.00 0.00 37 1010.0
20260506001458 76 84 1.0 8.0 0.00 0.00 0.00 37 1009.9
20260506000958 76 137 1.0 4.0 0.00 0.00 0.00 37 1009.8
20260506000459 77 174 1.0 4.0 0.00 0.00 0.00 37 1009.7
20260505235958 77 167 1.0 4.0 0.00 0.00 0.00 36 1009.7
20260505235500 77 227 1.0 7.0 0.00 0.00 0.00 36 1009.7
20260505235000 78 243 2.0 7.0 0.00 0.00 0.00 35 1009.7
20260505234727 78 186 1.0 6.0 0.00 0.00 0.00 34 1009.6
20260505234221 78 251 1.0 5.0 0.00 0.00 0.00 35 1009.6
20260505233457 78 249 1.0 5.0 0.00 0.00 0.00 33 1009.6
20260505233451 79 17 1.0 5.0 0.00 0.00 0.00 33 1009.6
20260505232715 79 173 2.0 8.0 0.00 0.00 0.00 32 1009.6
20260505231958 79 176 3.0 8.0 0.00 0.00 0.00 31 1009.6
20260505231949 79 231 3.0 8.0 0.00 0.00 0.00 31 1009.7
20260505231000 80 174 2.0 8.0 0.00 0.00 0.00 31 1009.7
20260505230458 80 241 2.0 9.0 0.00 0.00 0.00 30 1009.6
20260505225959 80 249 3.0 9.0 0.00 0.00 0.00 30 1009.6
20260505225451 80 317 3.0 10.0 0.00 0.00 0.00 29 1009.7
20260505224944 80 254 3.0 15.0 0.00 0.00 0.00 28 1009.7
20260505224440 80 259 4.0 15.0 0.00 0.00 0.00 27 1009.7
20260505223934 80 183 3.0 14.0 0.00 0.00 0.00 28 1009.7
20260505223427 80 180 3.0 14.0 0.00 0.00 0.00 29 1009.7
20260505222922 80 167 2.0 8.0 0.00 0.00 0.00 32 1009.5
20260505222650 80 202 2.0 9.0 0.00 0.00 0.00 31 1009.5
20260505221909 80 300 2.0 9.0 0.00 0.00 0.00 31 1009.6
20260505221403 80 196 2.0 9.0 0.00 0.00 0.00 30 1009.5
20260505220900 80 298 2.0 9.0 0.00 0.00 0.00 31 1009.7
20260505220400 80 237 3.0 10.0 0.00 0.00 0.00 29 1009.6
20260505215859 80 127 4.0 10.0 0.00 0.00 0.00 29 1009.5
20260505215358 80 98 3.0 10.0 0.00 0.00 0.00 29 1009.4
20260505214900 80 196 4.0 14.0 0.00 0.00 0.00 29 1009.6
20260505214359 80 271 4.0 14.0 0.00 0.00 0.00 29 1009.5
20260505213858 80 266 3.0 16.0 0.00 0.00 0.00 28 1009.5
20260505213359 80 274 4.0 16.0 0.00 0.00 0.00 28 1009.5
20260505212859 81 333 4.0 12.0 0.00 0.00 0.00 28 1009.5
20260505212356 81 288 4.0 15.0 0.00 0.00 0.00 27 1009.4
20260505211857 82 205 4.0 17.0 0.00 0.00 0.00 28 1009.3
20260505211353 82 263 4.0 17.0 0.00 0.00 0.00 27 1009.4
20260505210853 82 153 4.0 10.0 0.00 0.00 0.00 29 1009.3
20260505210355 81 92 4.0 11.0 0.00 0.00 0.00 28 1009.4
20260505205854 82 261 3.0 11.0 0.00 0.00 0.00 29 1009.3
20260505205355 82 196 3.0 15.0 0.00 0.00 0.00 29 1009.4
20260505204854 82 216 4.0 15.0 0.00 0.00 0.00 28 1009.3
20260505204615 82 298 4.0 16.0 0.00 0.00 0.00 29 1009.4
20260505204107 83 154 3.0 16.0 0.00 0.00 0.00 29 1009.4
20260505203336 83 213 4.0 16.0 0.00 0.00 0.00 30 1009.4
20260505202830 83 286 4.0 16.0 0.00 0.00 0.00 29 1009.4
20260505202325 83 180 5.0 14.0 0.00 0.00 0.00 28 1009.4
20260505201818 83 271 5.0 15.0 0.00 0.00 0.00 27 1009.4
20260505201312 84 167 3.0 15.0 0.00 0.00 0.00 28 1009.4
20260505201044 85 259 4.0 18.0 0.00 0.00 0.00 28 1009.5
20260505200301 84 204 4.0 18.0 0.00 0.00 0.00 27 1009.4
20260505200019 84 256 4.0 16.0 0.00 0.00 0.00 28 1009.4
20260505195248 84 155 4.0 16.0 0.00 0.00 0.00 28 1009.5
20260505195004 84 207 4.0 16.0 0.00 0.00 0.00 30 1009.6
20260505194456 84 213 3.0 10.0 0.00 0.00 0.00 30 1009.5
20260505193958 85 140 3.0 10.0 0.00 0.00 0.00 31 1009.6
20260505193224 85 251 3.0 9.0 0.00 0.00 0.00 29 1009.7
20260505192719 86 215 3.0 9.0 0.00 0.00 0.00 28 1009.7
20260505192212 87 223 3.0 9.0 0.00 0.00 0.00 29 1009.7
20260505191707 85 248 3.0 17.0 0.00 0.00 0.00 29 1010.0
20260505191200 85 134 4.0 17.0 0.00 0.00 0.00 29 1009.8
20260505190655 85 222 4.0 13.0 0.00 0.00 0.00 28 1010.1
20260505190148 86 145 3.0 11.0 0.00 0.00 0.00 26 1010.1
20260505185643 85 164 4.0 12.0 0.00 0.00 0.00 30 1010.3
20260505185137 84 222 5.0 14.0 0.00 0.00 0.00 29 1010.3
20260505184631 84 161 4.0 14.0 0.00 0.00 0.00 29 1010.4
20260505184124 84 259 3.0 9.0 0.00 0.00 0.00 28 1010.5
20260505183618 85 134 4.0 11.0 0.00 0.00 0.00 29 1010.8
20260505183119 84 329 4.0 11.0 0.00 0.00 0.00 28 1010.6
20260505182619 85 182 4.0 11.0 0.00 0.00 0.00 30 1010.9
20260505182119 84 203 4.0 11.0 0.00 0.00 0.00 28 1010.7
20260505181619 85 250 3.0 8.0 0.00 0.00 0.00 29 1010.8
20260505181119 84 94 3.0 8.0 0.00 0.00 0.00 29 1010.9
20260505180620 84 126 3.0 10.0 0.00 0.00 0.00 29 1010.9
20260505180117 83 317 5.0 13.0 0.00 0.00 0.00 31 1010.9
20260505175619 83 178 4.0 13.0 0.00 0.00 0.00 30 1011.0
20260505175118 83 236 4.0 13.0 0.00 0.00 0.00 32 1011.2
20260505174618 83 198 4.0 13.0 0.00 0.00 0.00 31 1011.2
20260505174119 84 279 3.0 14.0 0.00 0.00 0.00 29 1011.1
20260505173834 84 246 4.0 14.0 0.00 0.00 0.00 30 1011.2
20260505173115 83 86 3.0 13.0 0.00 0.00 0.00 30 1011.0
20260505172617 85 217 2.0 10.0 0.00 0.00 0.00 30 1011.2
20260505172331 82 261 3.0 9.0 0.00 0.00 0.00 36 1011.1
20260505171617 82 42 3.0 11.0 0.00 0.00 0.00 33 1011.3
20260505171117 82 192 3.0 11.0 0.00 0.00 0.00 34 1011.2
20260505170611 82 240 4.0 13.0 0.00 0.00 0.00 34 1011.3
20260505170327 82 269 4.0 13.0 0.00 0.00 0.00 35 1011.4
20260505165820 82 240 3.0 10.0 0.00 0.00 0.00 36 1011.4
20260505165052 81 179 4.0 13.0 0.00 0.00 0.00 37 1011.5
20260505164546 82 201 3.0 13.0 0.00 0.00 0.00 36 1011.7
20260505164041 81 234 4.0 11.0 0.00 0.00 0.00 37 1011.7
20260505163804 80 209 4.0 14.0 0.00 0.00 0.00 37 1011.8
20260505163028 80 190 4.0 14.0 0.00 0.00 0.00 37 1012.0
20260505162523 80 234 3.0 13.0 0.00 0.00 0.00 37 1012.0
20260505162024 80 210 3.0 13.0 0.00 0.00 0.00 38 1012.2
20260505161524 80 192 3.0 11.0 0.00 0.00 0.00 38 1012.2
20260505161023 79 111 3.0 11.0 0.00 0.00 0.00 39 1012.3
20260505160523 79 141 3.0 10.0 0.00 0.00 0.00 40 1012.4
20260505153022 77 142 2.0 9.0 0.00 0.00 0.00 43 1012.5
20260505153010 77 144 2.0 8.0 0.00 0.00 0.00 41 1012.5
20260505152019 77 252 2.0 7.0 0.00 0.00 0.00 41 1012.5
20260505151521 76 207 2.0 7.0 0.00 0.00 0.00 43 1012.4
20260505151018 76 333 3.0 11.0 0.00 0.00 0.00 44 1012.5
20260505150518 75 180 2.0 11.0 0.00 0.00 0.00 46 1012.5
20260505140516 70 140 1.0 5.0 0.00 0.00 0.00 52 1012.6
20260505130242 63 215 2.0 6.0 0.00 0.00 0.00 60 1012.5
20260505125013 63 130 2.0 10.0 0.00 0.00 0.00 61 1012.7
20260505124507 62 241 2.0 10.0 0.00 0.00 0.00 61 1012.8
20260505124001 62 222 1.0 8.0 0.00 0.00 0.00 61 1012.8
20260505123455 62 265 2.0 6.0 0.00 0.00 0.00 62 1012.8
20260505122949 62 186 2.0 6.0 0.00 0.00 0.00 62 1012.8
20260505122444 61 198 1.0 6.0 0.00 0.00 0.00 63 1012.7
20260505121938 61 65 1.0 5.0 0.00 0.00 0.00 64 1012.6
20260505121433 61 217 2.0 7.0 0.00 0.00 0.00 63 1012.5
20260505120932 61 243 2.0 7.0 0.00 0.00 0.00 63 1012.4
20260505120431 61 194 2.0 7.0 0.00 0.00 0.00 63 1012.5
20260505115929 61 305 2.0 7.0 0.00 0.00 0.00 63 1012.6
20260505115430 60 304 2.0 8.0 0.00 0.00 0.00 63 1012.5
20260505114929 60 288 2.0 9.0 0.00 0.00 0.00 63 1012.6
20260505114430 60 158 2.0 9.0 0.00 0.00 0.00 64 1012.5
20260505113929 60 219 2.0 4.0 0.00 0.00 0.00 63 1012.4
20260505113428 60 241 1.0 6.0 0.00 0.00 0.00 63 1012.3
20260505112926 60 174 1.0 6.0 0.00 0.00 0.00 64 1012.3
20260505112904 60 184 2.0 7.0 0.00 0.00 0.00 63 1012.3
20260505111922 60 196 1.0 7.0 0.00 0.00 0.00 63 1012.3
20260505111422 60 204 2.0 9.0 0.00 0.00 0.00 64 1012.2
20260505110923 60 250 1.0 9.0 0.00 0.00 0.00 63 1012.1
20260505110421 60 248 1.0 7.0 0.00 0.00 0.00 63 1012.1
20260505110150 60 300 1.0 7.0 0.00 0.00 0.00 63 1012.0
20260505101852 60 250 2.0 9.0 0.00 0.00 0.00 61 1011.8
20260505101346 60 140 1.0 5.0 0.00 0.00 0.00 61 1011.8
20260505100839 60 168 1.0 5.0 0.00 0.00 0.00 61 1011.7
20260505100333 60 212 2.0 6.0 0.00 0.00 0.00 62 1011.7
20260505095827 60 211 2.0 7.0 0.00 0.00 0.00 61 1011.7
20260505095321 60 237 2.0 9.0 0.00 0.00 0.00 61 1011.7
20260505095040 60 164 2.0 9.0 0.00 0.00 0.00 61 1011.8
20260505094309 60 122 2.0 7.0 0.00 0.00 0.00 61 1011.7
20260505094029 60 203 2.0 7.0 0.00 0.00 0.00 61 1011.6
20260505093517 60 349 2.0 7.0 0.00 0.00 0.00 61 1011.6
20260505093013 60 142 2.0 7.0 0.00 0.00 0.00 61 1011.6
20260505092246 60 211 2.0 8.0 0.00 0.00 0.00 60 1011.6
20260505091739 60 218 2.0 8.0 0.00 0.00 0.00 61 1011.6
20260505091233 60 264 2.0 10.0 0.00 0.00 0.00 61 1011.5
20260505090728 60 123 2.0 10.0 0.00 0.00 0.00 60 1011.4
20260505090221 60 209 2.0 9.0 0.00 0.00 0.00 61 1011.5
20260505085715 60 217 2.0 9.0 0.00 0.00 0.00 60 1011.5
20260505085208 61 140 2.0 10.0 0.00 0.00 0.00 60 1011.4
20260505084927 61 212 2.0 10.0 0.00 0.00 0.00 60 1011.4
20260505084639 61 254 1.0 7.0 0.00 0.00 0.00 60 1011.5
20260505083653 61 286 1.0 5.0 0.00 0.00 0.00 60 1011.4
20260505083145 61 25 1.0 3.0 0.00 0.00 0.00 60 1011.3
20260505082638 61 219 1.0 4.0 0.00 0.00 0.00 60 1011.5
20260505082134 61 244 2.0 7.0 0.00 0.00 0.00 60 1011.5
20260505081627 61 239 2.0 7.0 0.00 0.00 0.00 60 1011.4
20260505081122 61 232 1.0 10.0 0.00 0.00 0.00 60 1011.4
20260505080615 61 229 1.0 10.0 0.00 0.00 0.00 60 1011.4
20260505080110 61 216 1.0 5.0 0.00 0.00 0.00 60 1011.3
20260505075603 61 257 1.0 5.0 0.00 0.00 0.00 61 1011.4
20260505075058 61 207 2.0 7.0 0.00 0.00 0.00 61 1011.3
20260505074551 61 232 1.0 7.0 0.00 0.00 0.00 61 1011.2
20260505074045 61 183 1.0 4.0 0.00 0.00 0.00 61 1011.1
20260505073539 61 199 1.0 4.0 0.00 0.00 0.00 61 1011.1
20260505073033 61 231 1.0 4.0 0.00 0.00 0.00 61 1011.1
20260505072527 61 189 2.0 7.0 0.00 0.00 0.00 61 1011.1
20260505072021 61 307 2.0 7.0 0.00 0.00 0.00 61 1011.1
20260505071516 61 223 1.0 4.0 0.00 0.00 0.00 61 1011.0
20260505071009 61 148 1.0 5.0 0.00 0.00 0.00 61 1011.1
20260505070503 61 284 2.0 5.0 0.00 0.00 0.00 62 1011.1
20260505065957 61 227 2.0 6.0 0.00 0.00 0.00 62 1011.0
20260505065452 61 229 1.0 6.0 0.00 0.00 0.00 62 1011.0
20260505064945 61 254 1.0 4.0 0.00 0.00 0.00 62 1010.8
20260505064439 61 284 2.0 7.0 0.00 0.00 0.00 63 1010.9
20260505063933 60 277 2.0 7.0 0.00 0.00 0.00 64 1010.8
20260505063427 60 195 1.0 5.0 0.00 0.00 0.00 64 1010.9
20260505062921 60 217 1.0 7.0 0.00 0.00 0.00 65 1010.8
20260505062415 60 166 2.0 7.0 0.00 0.00 0.00 66 1010.9
20260505061909 60 235 2.0 8.0 0.00 0.00 0.00 66 1010.8
20260505061403 60 254 1.0 8.0 0.00 0.00 0.00 66 1010.8
20260505060858 60 273 1.0 4.0 0.00 0.00 0.00 67 1010.8
20260505060358 60 227 1.0 4.0 0.00 0.00 0.00 68 1010.7
20260505055859 60 176 1.0 4.0 0.00 0.00 0.00 67 1010.8
20260505055400 60 206 0.0 3.0 0.00 0.00 0.00 68 1010.7
20260505054859 60 207 0.0 3.0 0.00 0.00 0.00 68 1010.8
20260505054359 60 131 0.0 2.0 0.00 0.00 0.00 68 1010.8
20260505053855 60 130 1.0 4.0 0.00 0.00 0.00 68 1010.8
20260505053358 60 288 1.0 4.0 0.00 0.00 0.00 68 1010.8
20260505052856 60 188 0.0 3.0 0.00 0.00 0.00 69 1010.8
20260505052355 60 154 0.0 2.0 0.00 0.00 0.00 68 1010.8
20260505051854 60 250 0.0 2.0 0.00 0.00 0.00 68 1010.8
20260505051353 60 211 0.0 1.0 0.00 0.00 0.00 68 1010.8
20260505050851 60 231 0.0 2.0 0.00 0.00 0.00 69 1010.8
20260505050349 60 234 0.0 2.0 0.00 0.00 0.00 69 1010.9
20260505041339 62 171 0.0 1.0 0.00 0.00 0.00 65 1010.8
20260505040838 62 171 0.0 1.0 0.00 0.00 0.00 65 1010.8
20260505040338 62 171 0.0 1.0 0.00 0.00 0.00 65 1010.9
20260505035840 62 224 0.0 1.0 0.00 0.00 0.00 64 1010.8
20260505035333 63 231 0.0 1.0 0.00 0.00 0.00 63 1010.7
20260505035054 63 213 0.0 0.0 0.00 0.00 0.00 63 1010.8
20260505034321 63 213 0.0 1.0 0.00 0.00 0.00 63 1010.8
20260505033816 63 213 0.0 3.0 0.00 0.00 0.00 62 1010.9
20260505033309 63 200 0.0 3.0 0.00 0.00 0.00 62 1010.8
20260505032803 64 142 0.0 3.0 0.00 0.00 0.00 62 1010.9
20260505032258 64 188 0.0 3.0 0.00 0.00 0.00 61 1010.9
20260505031751 64 214 0.0 3.0 0.00 0.00 0.00 60 1010.9
20260505031245 64 247 0.0 2.0 0.00 0.00 0.00 60 1011.0
20260505030739 64 341 0.0 2.0 0.00 0.00 0.00 59 1011.0
20260505030234 64 188 0.0 2.0 0.00 0.00 0.00 59 1011.0
20260505025727 65 188 1.0 3.0 0.00 0.00 0.00 59 1011.0
20260505025706 65 212 1.0 3.0 0.00 0.00 0.00 59 1011.0